Regional Weather Roundup
Issued by NWS

Home | Current Version | Previous Version | Graphics & Text | Print | Product List | Glossary On
Versions: 1 2 3 4 5 6 7 8 9 10 11 12 13 14 15 16 17 18 19 20 21 22 23 24 25 26 27 28 29 30 31 32 33 34 35 36 37 38 39 40 41 42 43 44 45 46 47 48 49 50
000
ASUS43 KBIS 032310
RWRND

NORTH DAKOTA REGIONAL WEATHER ROUNDUP
NATIONAL WEATHER SERVICE BISMARCK ND
600 PM CDT TUE MAY 03 2016

NOTE: "FAIR" INDICATES FEW OR NO CLOUDS BELOW 12,000 FEET WITH NO
SIGNIFICANT WEATHER AND/OR OBSTRUCTIONS TO VISIBILITY.


NDZ001>003-009>011-017-040000-
NORTHWEST NORTH DAKOTA

CITY           SKY/WX    TMP DP  RH WIND       PRES   REMARKS
WILLISTON      SUNNY     80  39  23 N9G21     30.03S
MINOT          SUNNY     78  26  14 N16G29    30.00R
MINOT AFB      SUNNY     73  30  20 N15       29.99R
$$

NDZ018>021-031>035-040>046-040000-
SOUTHWEST NORTH DAKOTA

CITY           SKY/WX    TMP DP  RH WIND       PRES   REMARKS
BISMARCK       SUNNY     74  35  24 N17G25    29.98R
DICKINSON      SUNNY     76  37  24 N16G23    30.02S
GARRISON         N/A     75  33  21 N15G26    30.00R
HETTINGER ARPT SUNNY     76  36  23 N12G22    30.04S
$$

NDZ004>008-012>016-024-026-027-054-040000-
NORTHEAST NORTH DAKOTA

CITY           SKY/WX    TMP DP  RH WIND       PRES   REMARKS
GRAND FORKS    SUNNY     66  29  24 N21G35    29.91R
GRND FRKS AFB  SUNNY     65  29  26 N22G35    29.92R
DEVILS LAKE    SUNNY     66  28  24 N22G30    29.97R
$$

NDZ022-023-025-028>030-036>039-047>053-040000-
SOUTHEAST NORTH DAKOTA

CITY           SKY/WX    TMP DP  RH WIND       PRES   REMARKS
FARGO          SUNNY     69  25  19 N26G36    29.87R
JAMESTOWN      SUNNY     68  23  18 N25G32    29.93R
$$




USA.gov is the U.S. government's official web portal to all federal, state and local government web resources and services.